{"data":{"norad_id":50476,"intl_designator":"2021-132H","name":"ONEWEB-0396","alt_names":[],"object_type":"PAYLOAD","status":"ACTIVE","operator":null,"country":"UK","launch_date":"2021-12-27","launch_site_code":"TYMSC","launch_vehicle":null,"mission":null,"orbit_class":"UNKNOWN","rcs_meters":null,"size_class":null,"mass_kg":null,"dimensions":null,"purposes":["comms"],"wikipedia_slug":null,"has_3d_model":false,"image_url":null,"decayed_at":null,"tle_current":{"epoch":"2026-05-25T00:35:52.167840Z","epoch_age_seconds":66901,"freshness":"FRESH","line1":"1 50476U 21132H   26145.02490935  .00000022  00000+0  22544-4 0  9995","line2":"2 50476  87.9170 340.0638 0002022  88.6536 271.4828 13.18688138218585","mean_motion":13.18688138,"eccentricity":0.0002022,"inclination_deg":87.917,"raan_deg":340.0638,"arg_perigee_deg":88.6536,"mean_anomaly_deg":271.4828,"bstar":2.2544e-5,"rev_number":21858,"period_min":109.19943529514,"perigee_km":1188.2047232459,"apogee_km":1191.2651706613,"semimajor_km":7567.8719469536,"source":"CELESTRAK","updated_at":"2026-05-25T13:38:22.529194Z"}}}